{"data":{"norad_id":24307,"epoch":"2026-09-18T12:08:28.000032Z","epoch_age_seconds":183467,"freshness":"STALE","line1":"1 24307U 96053A   26261.50587963  .00000113  00000+0  00000+0 0  9992","line2":"2 24307  10.0638  52.9607 0005694 123.2997  56.2790  0.99979168109852","mean_motion":0.99979168,"eccentricity":0.0005694,"inclination_deg":10.0638,"raan_deg":52.9607,"arg_perigee_deg":123.2997,"mean_anomaly_deg":56.279,"bstar":0,"rev_number":10985,"period_min":1440.300043305,"perigee_km":35844.770715418,"apogee_km":35892.881557038,"semimajor_km":42246.963136228,"source":"CELESTRAK","updated_at":"2026-09-20T09:00:35.116217Z"}}